Tracking 20710 objects as of 30-May-2020
HD Live streaming from Space Station
objects crossing your sky now

NOAA 16 DEB

Track NOAA 16 DEB now!
10-day predictions


NORAD ID: 42427
Int'l Code: 2000-055TX
Perigee: 736.2 km
Apogee: 846.5 km
Inclination: 98.9 °
Period: 100.5 minutes
Semi major axis: 7162 km
RCS: Unknown
Launch date: September 21, 2000
Source: United States (US)
Launch site: AIR FORCE WESTERN TEST RANGE (AFWTR)

Note: This is SATELLITE DEBRIS
aabbcc
Your satellite tracking list
Your tracking list is empty




NASA's NSSDC Master Catalog

Two Line Element Set (TLE):
1 42427U 00055TX  20150.10882884  .00000241  00000-0  10352-3 0  9997
2 42427  98.8707 273.4307 0077021 338.2706  21.5215 14.32244028198051
Source of the keplerian elements: AFSPC